Satellite: NOAA-17
Catalog number: 27453
Epoch time:      11348.92742234
Element set:    0528
Inclination:      098.3583 deg
RA of node:       020.1409 deg
Eccentricity:    0.0011563
Arg of perigee:   345.3712 deg
Mean anomaly:     014.7138 deg
Mean motion:   14.24368462 rev/day
Decay rate:       2.88e-06 rev/day^2
Epoch rev:           49238
Checksum:              305

Satellite: NOAA-18
Catalog number: 28654
Epoch time:      11348.78568651
Element set:    0003
Inclination:      099.0213 deg
RA of node:       300.5914 deg
Eccentricity:    0.0013924
Arg of perigee:   319.3304 deg
Mean anomaly:     040.6821 deg
Mean motion:   14.11575324 rev/day
Decay rate:       5.54e-06 rev/day^2
Epoch rev:           33840
Checksum:              284

Satellite: NOAA-19
Catalog number: 33591
Epoch time:      11348.75209838
Element set:    0192
Inclination:      098.8468 deg
RA of node:       286.0251 deg
Eccentricity:    0.0013958
Arg of perigee:   182.6661 deg
Mean anomaly:     177.4446 deg
Mean motion:   14.11264295 rev/day
Decay rate:       5.00e-06 rev/day^2
Epoch rev:           14685
Checksum:              332

/EX
SB KEPS @ AMSAT  $ORB11349.M
Orbital Elements  11349.MISC

HR AMSAT ORBITAL ELEMENTS FOR MANNED AND MISCELLANEOUS SATELLITES
FROM WA5QGD FORT WORTH,TX December 15, 2011
Send Subscribe/unsubscribe to KEPS at http://www.amsat.org/mailman/listinfo/kep
BID: ORB11349.M
TO ALL RADIO AMATEURS BT

Satellite: HUBBLE
Catalog number: 20580
Epoch time:      11347.17678168
Element set:     904
Inclination:      028.4717 deg
RA of node:       286.8741 deg
Eccentricity:    0.0003564
Arg of perigee:   222.7757 deg
Mean anomaly:     137.2358 deg
Mean motion:   15.01987885 rev/day
Decay rate:      3.263e-05 rev/day^2
Epoch rev:           98658
Checksum:              342

Satellite: ISS
Catalog number: 25544
Epoch time:      11349.94557278
Element set:     631
Inclination:      051.6451 deg
RA of node:       326.3978 deg
Eccentricity:    0.0024914
Arg of perigee:   168.6872 deg
Mean anomaly:     288.3921 deg
Mean motion:   15.58214982 rev/day
Decay rate:     1.6796e-04 rev/day^2
Epoch rev:           74928
Checksum:              357

Satellite: CO-58
Catalog number: 28895
Epoch time:      11348.62751943
Element set:    0049
Inclination:      097.9397 deg
RA of node:       217.7814 deg
Eccentricity:    0.0018010
Arg of perigee:   018.2147 deg
Mean anomaly:     341.9677 deg
Mean motion:   14.60390463 rev/day
Decay rate:      1.378e-05 rev/day^2
Epoch rev:           32657
Checksum:              343

Satellite: FALCON
Catalog number: 30776
Epoch time:      11348.93417935
Element set:    0249
Inclination:      035.4349 deg
RA of node:       327.1362 deg
Eccentricity:    0.0002637
Arg of perigee:   234.8572 deg
Mean anomaly:     125.1896 deg
Mean motion:   15.06141359 rev/day
Decay rate:      7.431e-05 rev/day^2
Epoch rev:           26229
Checksum:              308

Satellite: MAST
Catalog number: 31126
Epoch time:      11349.52723426
Element set:     333
Inclination:      097.8826 deg
RA of node:       006.3890 deg
Eccentricity:    0.0093820
Arg of perigee:   326.8290 deg
Mean anomaly:     032.7044 deg
Mean motion:   14.53964270 rev/day
Decay rate:       9.59e-06 rev/day^2
Epoch rev:           24743
Checksum:              302

Satellite: CAPE1
Catalog number: 31130
Epoch time:      11348.92210731
Element set:    0345
Inclination:      097.8872 deg
RA of node:       002.3470 deg
Eccentricity:    0.0101735
Arg of perigee:   340.4936 deg
Mean anomaly:     019.2396 deg
Mean motion:   14.52675222 rev/day
Decay rate:      1.557e-05 rev/day^2
Epoch rev:           24687
Checksum:              285

Satellite: COMPASS
Catalog number: 32787
Epoch time:      11348.66732285
Element set:    0172
Inclination:      097.8279 deg
RA of node:       048.9657 deg
Eccentricity:    0.0014582
Arg of perigee:   310.4610 deg
Mean anomaly:     049.5329 deg
Mean motion:   14.83249611 rev/day
Decay rate:      3.730e-05 rev/day^2
Epoch rev:           19630
Checksum:              320

Satellite: AAUSAT2
Catalog number: 32788
Epoch time:      11348.87558604
Element set:    0163
Inclination:      097.8285 deg
RA of node:       049.4591 deg
Eccentricity:    0.0014308
Arg of perigee:   311.8685 deg
Mean anomaly:     048.1254 deg
Mean motion:   14.83507509 rev/day
Decay rate:      4.213e-05 rev/day^2
Epoch rev:           19635
Checksum:              327

Satellite: DO-64
Catalog number: 32789
Epoch time:      11348.87507315
Element set:    0177
Inclination:      097.8365 deg
RA of node:       050.8645 deg
Eccentricity:    0.0014474
Arg of perigee:   307.0149 deg
Mean anomaly:     052.9704 deg
Mean motion:   14.84487902 rev/day
Decay rate:      6.406e-05 rev/day^2
Epoch rev:           19637
Checksum:              342

Satellite: CO-66
Catalog number: 32791
Epoch time:      11349.46949033
Element set:     165
Inclination:      097.8283 deg
RA of node:       049.6198 deg
Eccentricity:    0.0015047
Arg of perigee:   307.9596 deg
Mean anomaly:     052.0261 deg
Mean motion:   14.82803452 rev/day
Decay rate:      2.894e-05 rev/day^2
Epoch rev:           19636
Checksum:              342

